RH
37 37 38 38 38 40 41 38 36 34 32 33 34 37 42 46 52 59 58 46 44 45 41 56 71 81 90 90 79 79 87 74 71 63 56 70 66 62 67 88 100 83 70 72 81 67 46 38 27 21 20 19 20 20 20 20 23 26 30 35 36 36 34 32 29 26 25 26 29 31 31 31 32 32 41 55 56 54 54 55 55 53 49 44 40 37 36 35 35 35 33 31 31 34 33 32 33
39 38 37 38 39 39 39 38 38 37 36 36 36 38 41 42 46 55 56 43 42 45 35 62 78 64 69 64 53 53 58 64 63 50 46 51 49 53 67 86 87 74 76 72 57 42 33 30 22 20 21 19 19 20 20 20 22 25 30 35 37 36 33 30 28 26 26 28 31 31 32 32 33 33 42 54 56 57 55 54 53 51 49 42 39 39 38 35 34 34 33 31 30 33 32 30 30
40 40 39 38 38 39 39 38 38 39 38 38 39 40 41 42 44 45 43 40 43 42 38 61 68 55 56 48 49 48 47 64 64 52 49 48 44 50 70 83 80 78 88 81 51 33 29 25 22 22 20 20 20 20 19 20 21 25 31 34 35 34 30 28 27 27 28 30 32 33 33 33 34 35 41 52 57 60 58 54 51 49 47 42 40 42 40 36 35 34 34 32 29 30 29 28 28
42 41 40 40 39 39 40 38 38 39 39 38 41 41 42 42 42 42 41 42 42 40 42 55 56 52 55 48 47 47 49 61 63 62 63 61 55 63 78 76 83 91 88 83 61 34 26 25 23 22 20 21 20 19 20 20 21 25 30 31 32 31 28 27 28 28 30 32 34 35 35 34 35 37 43 55 63 65 63 56 50 48 45 42 42 45 41 36 35 35 34 32 29 29 28 27 27
44 43 41 41 41 40 40 39 38 39 40 40 41 42 42 42 42 43 42 41 42 43 45 49 50 50 52 48 46 49 56 69 67 63 78 86 74 78 91 82 82 85 74 70 59 33 24 25 23 23 22 21 21 21 20 20 21 25 27 27 28 29 28 28 30 30 32 35 37 36 36 35 36 39 46 61 70 69 65 59 52 48 45 43 45 48 43 37 35 35 35 33 31 30 28 28 27
47 47 45 43 41 41 41 40 40 40 42 41 40 42 42 42 42 43 42 42 44 46 49 50 51 51 52 48 48 51 51 65 71 61 71 83 75 73 78 73 70 70 59 44 36 28 25 26 23 23 22 21 22 21 20 20 21 23 24 24 27 29 28 30 32 32 33 36 38 37 36 36 37 39 46 62 71 70 66 62 55 50 47 44 47 51 48 41 36 35 35 33 32 32 32 32 31
50 49 49 47 44 42 41 41 41 40 42 42 41 42 42 44 43 43 45 45 47 48 52 56 54 52 52 47 46 52 43 49 72 64 51 66 82 78 61 53 52 53 47 35 29 28 26 25 24 23 22 22 21 21 21 21 22 23 23 24 28 28 28 31 32 33 34 37 38 38 38 36 37 39 44 57 66 67 66 63 58 54 50 48 49 52 53 46 40 38 37 34 32 33 34 34 32
56 52 52 53 50 48 45 42 42 41 41 40 41 41 41 43 44 47 49 49 49 49 54 55 53 51 51 50 44 45 42 51 84 83 65 79 92 74 50 45 44 39 37 34 30 28 27 25 25 24 22 22 21 22 21 21 22 23 24 25 26 27 28 30 32 33 34 37 39 39 39 37 36 39 42 50 58 63 63 60 58 57 53 51 51 54 57 51 46 45 41 35 32 32 33 33 32
64 59 56 56 54 55 53 48 45 44 42 41 42 41 42 42 45 50 51 51 51 49 54 53 50 50 49 50 46 48 52 56 69 82 96 95 70 52 49 49 44 36 34 32 29 29 28 26 25 24 22 22 21 21 22 23 23 23 24 24 25 26 27 29 32 33 34 37 40 40 39 38 36 38 41 46 53 58 57 55 57 58 55 53 54 57 59 56 52 49 41 34 33 33 33 31 29
65 63 60 59 57 57 58 55 50 47 45 44 43 43 43 42 48 56 53 49 49 48 51 52 50 51 50 49 50 55 58 55 48 60 90 79 49 50 51 40 37 37 36 33 32 30 27 27 26 24 23 22 22 22 22 23 23 23 23 23 24 24 26 29 31 32 34 37 39 40 38 38 37 38 42 44 48 51 50 51 56 58 55 54 57 60 60 59 56 49 41 34 33 32 31 28 27
63 63 61 62 60 56 58 58 52 48 48 47 47 48 44 41 50 60 53 43 46 53 53 53 53 51 52 50 49 49 48 51 47 49 62 52 45 55 47 36 38 40 36 35 34 31 29 28 25 24 23 22 22 22 22 23 22 22 22 23 23 24 26 27 30 32 34 37 38 37 36 37 37 39 42 42 43 45 46 49 57 58 55 56 60 62 62 60 56 50 42 36 34 32 30 29 28
66 64 62 62 62 59 57 57 55 51 50 52 50 48 46 46 53 58 55 45 45 55 56 54 54 53 52 50 49 48 46 48 44 44 49 43 43 47 42 41 42 39 37 39 37 33 31 28 26 25 23 23 22 22 22 22 22 22 23 23 23 24 26 27 28 31 33 35 35 34 35 36 37 40 41 40 41 42 44 49 55 57 56 57 61 63 61 59 54 50 45 40 37 35 35 34 33
79 73 65 62 62 61 59 57 58 55 51 53 51 48 51 53 54 53 53 48 46 50 53 54 53 53 50 47 50 48 46 48 45 43 48 49 45 43 42 43 43 41 40 40 37 34 32 29 27 25 23 23 22 23 23 22 23 23 23 22 23 24 23 26 27 30 33 33 33 32 33 34 36 39 41 38 38 41 42 46 51 53 56 58 61 62 60 57 54 51 48 44 42 40 38 38 37
90 88 75 69 66 61 60 58 57 58 55 52 51 51 53 54 52 51 50 49 49 50 51 53 50 51 51 48 50 50 46 44 46 45 46 48 43 42 42 42 44 41 41 42 39 35 33 30 26 25 24 24 23 23 23 23 22 22 24 23 23 23 23 24 26 29 31 31 31 32 33 33 36 38 39 37 37 40 41 42 46 51 57 61 63 62 61 59 56 54 50 48 45 43 41 39 38
86 93 83 75 75 68 62 60 56 56 56 53 52 53 53 52 51 51 51 49 51 51 52 53 48 48 50 49 48 48 48 44 44 42 41 41 37 38 36 39 43 40 45 46 44 41 32 29 26 25 25 24 25 23 23 23 23 23 22 23 23 23 23 23 25 27 29 30 31 32 34 33 35 37 37 36 36 39 40 40 42 48 55 64 68 65 62 60 58 54 51 49 47 45 42 40 38
68 80 79 71 76 79 74 70 67 62 58 56 53 53 53 52 53 51 50 50 52 53 53 55 51 49 46 51 60 56 53 49 44 40 42 41 36 36 33 41 45 47 64 57 49 48 33 28 27 25 26 25 25 24 24 22 22 23 22 23 23 22 22 23 24 26 27 29 31 33 33 34 35 36 35 35 36 38 39 39 40 44 51 63 73 70 65 61 57 54 52 51 49 47 43 41 39
47 56 60 60 67 80 85 85 82 77 69 63 58 57 53 51 52 50 52 52 52 53 52 55 54 53 49 53 67 60 50 50 47 42 40 38 38 44 44 49 50 58 79 61 43 46 33 28 27 26 27 25 26 25 24 24 23 22 22 22 21 22 22 22 23 24 27 28 30 32 32 34 34 34 34 34 36 37 38 39 39 42 47 60 73 74 68 64 60 58 57 54 50 47 45 44 42
31 36 42 46 54 67 81 87 85 84 84 80 68 56 49 54 61 57 57 55 54 57 54 58 57 54 57 56 56 48 44 47 50 46 40 49 59 57 48 47 53 59 64 47 37 39 31 28 27 27 27 25 27 26 25 24 23 22 22 22 21 22 21 22 23 23 25 27 29 31 31 32 34 34 33 33 34 35 37 38 39 40 44 54 67 74 74 71 68 63 59 55 49 46 47 46 45
23 25 29 32 39 49 60 70 75 79 83 77 52 39 49 70 81 73 69 68 67 66 59 62 58 55 65 59 44 39 41 39 42 43 40 57 63 48 38 40 47 48 40 34 34 33 29 30 29 28 27 26 26 26 26 24 23 23 21 21 21 21 21 21 21 22 23 25 28 29 31 31 33 34 33 33 33 33 36 38 39 39 42 48 56 66 72 74 73 68 62 56 50 46 47 48 47
19 20 22 24 28 33 39 46 55 61 59 51 37 40 67 83 88 82 77 81 78 73 66 62 56 57 63 54 39 36 39 33 35 37 32 42 45 39 40 37 35 35 31 30 30 30 30 31 30 29 27 26 26 25 25 23 23 22 21 21 21 20 20 20 20 21 21 22 25 27 30 31 34 36 35 34 33 33 35 37 39 40 42 45 51 60 69 74 74 70 65 60 55 49 48 49 46
21 19 19 21 22 24 28 31 36 40 37 41 40 42 63 75 77 76 73 79 79 73 66 55 50 53 52 45 39 37 36 34 36 36 30 32 34 39 43 35 31 33 32 30 30 31 31 31 30 29 27 25 24 24 23 22 22 21 21 20 20 20 19 20 20 19 20 20 22 25 28 32 35 38 38 37 37 38 37 38 39 40 42 43 49 61 68 73 73 69 64 61 60 58 54 48 41
26 23 21 21 20 20 21 23 24 27 27 34 34 28 42 56 60 61 60 65 67 63 58 45 38 42 40 36 35 33 31 31 31 29 32 36 31 32 32 28 34 43 41 35 34 33 29 30 30 27 26 26 24 23 23 22 21 20 20 20 20 20 19 19 18 18 19 19 21 24 27 30 33 39 41 39 41 45 46 47 47 48 52 52 53 60 66 68 68 65 63 67 71 69 59 48 39
26 27 26 24 21 19 18 19 19 21 22 24 25 23 28 38 40 43 45 47 48 46 43 34 29 32 31 29 30 29 24 23 24 22 29 32 25 25 31 34 41 50 46 35 32 31 28 28 27 27 26 26 25 23 22 21 21 20 20 20 19 19 19 19 18 18 18 18 20 21 25 27 30 36 37 45 59 70 76 77 75 72 73 71 61 58 64 65 61 58 61 72 81 79 66 51 42
22 25 27 27 25 21 19 17 16 18 20 19 20 19 20 26 29 31 32 32 33 31 31 28 24 27 31 28 23 25 23 19 21 20 18 18 24 36 48 53 45 41 39 32 28 25 26 27 24 24 25 24 24 23 23 22 21 21 20 20 20 19 19 18 18 18 18 19 19 20 25 25 28 30 33 63 90 93 97 101 98 91 84 75 61 56 58 56 52 49 50 55 63 69 63 50 43
18 22 23 27 28 25 22 19 17 17 19 17 17 17 18 21 21 23 24 23 25 23 23 22 17 23 32 25 21 39 42 28 29 33 30 33 51 66 62 54 38 30 34 27 22 23 23 23 22 22 22 22 23 22 22 21 21 21 20 19 19 19 18 19 18 18 18 19 19 20 24 24 26 27 31 66 98 100 96 99 104 101 85 68 56 54 52 48 46 44 43 42 44 49 49 44 41
17 19 20 23 26 26 24 21 19 19 21 17 16 16 16 18 18 19 18 19 20 18 17 16 18 23 26 20 22 39 38 37 60 74 75 77 88 96 81 58 36 27 30 23 17 20 20 20 20 20 19 19 19 21 21 19 21 20 22 28 29 28 23 20 18 19 20 19 20 21 24 25 28 35 39 55 80 98 100 99 103 94 71 56 50 52 51 49 49 47 47 46 44 44 43 43 43
17 18 19 18 21 23 21 22 23 23 23 18 17 18 18 18 16 15 16 18 16 13 15 14 14 15 21 27 26 32 44 68 95 99 96 100 106 107 90 65 39 21 17 17 17 16 17 19 18 17 17 19 18 17 17 20 28 37 46 54 55 51 45 39 32 29 26 26 30 29 29 32 40 53 55 48 53 77 97 97 85 64 49 47 49 52 50 50 50 50 50 50 49 49 47 47 48
18 18 18 16 18 20 19 23 27 26 25 22 21 21 20 18 16 16 17 15 14 13 15 18 19 21 29 26 23 50 85 98 98 95 92 100 111 104 91 79 55 37 29 23 21 18 19 18 16 19 17 16 20 24 33 46 57 67 73 77 78 77 76 70 59 52 49 49 49 47 49 54 66 74 62 43 35 44 59 59 47 38 39 43 46 48 48 50 52 53 55 56 56 55 54 53 53
20 18 18 18 17 18 18 22 27 27 26 25 25 24 22 20 18 18 16 13 15 11 11 21 25 27 27 20 38 81 103 99 95 98 91 92 108 104 97 90 64 50 47 40 31 25 25 21 19 22 20 33 56 68 76 78 75 78 86 93 96 96 95 90 79 78 82 80 69 70 82 86 92 91 66 45 34 28 29 29 29 31 35 41 46 48 49 53 58 60 62 63 63 62 63 62 61
24 19 18 19 17 17 17 20 23 25 27 27 26 26 25 23 21 18 17 14 13 14 24 38 39 39 41 51 82 98 92 97 102 101 91 89 104 106 103 98 77 54 36 26 23 23 24 22 25 22 33 70 91 88 84 82 82 90 99 101 101 100 100 100 94 96 101 98 89 93 103 100 101 99 74 51 38 30 30 32 35 35 38 45 51 53 54 57 62 67 69 69 70 71 72 72 71
29 23 20 19 16 17 18 18 21 23 27 29 27 29 30 27 25 18 16 14 12 29 57 76 81 83 85 91 100 90 85 101 104 95 91 94 100 100 101 105 102 84 57 31 14 20 22 18 22 21 50 90 86 75 81 88 97 101 100 98 100 101 101 103 101 101 103 101 100 103 104 101 104 98 72 53 43 41 43 43 43 45 47 51 55 59 60 62 68 74 79 81 82 81 80 79 79
33 27 23 21 18 17 19 19 19 22 26 29 28 31 33 29 23 17 17 17 15 30 62 93 102 101 101 98 94 93 98 103 97 92 91 96 97 95 95 99 105 104 97 71 25 11 16 18 18 20 62 96 80 80 94 98 102 100 99 100 101 101 100 102 100 100 102 100 100 100 102 104 103 89 68 59 58 57 58 57 56 58 60 62 66 70 72 77 83 87 91 91 87 82 80 81 83
38 31 27 25 21 18 20 20 19 21 23 27 31 33 34 28 19 17 19 19 19 20 43 87 104 99 101 98 95 101 104 99 94 93 95 99 98 97 93 91 97 97 99 96 63 38 31 26 19 28 73 98 91 97 100 98 103 101 102 101 99 99 100 102 99 100 102 101 101 100 102 105 99 88 77 72 70 66 63 63 67 72 74 75 80 85 86 87 88 86 84 79 74 71 72 77 79
40 36 32 28 25 20 21 23 20 21 20 25 33 34 33 25 17 20 19 22 35 27 21 60 94 98 100 99 96 96 95 99 100 95 96 101 99 99 98 93 95 93 93 95 89 85 66 37 34 59 90 100 99 102 99 98 102 101 101 100 100 100 98 100 101 102 101 98 102 102 100 101 102 98 84 67 59 54 50 50 55 62 66 66 71 74 74 72 70 69 68 64 63 64 65 69 70
49 44 37 33 30 23 25 25 20 21 21 24 32 35 31 22 19 21 16 23 45 39 18 47 93 101 99 101 97 95 97 101 104 98 98 102 100 99 102 102 95 93 100 95 90 102 94 66 68 88 98 100 102 100 98 99 99 101 101 99 103 100 95 98 101 101 96 94 98 100 99 100 103 98 78 53 40 35 33 32 32 34 39 46 52 52 53 56 58 60 61 60 60 60 60 60 62
61 52 43 39 34 26 28 24 19 24 23 22 29 34 30 21 20 19 18 22 33 40 32 50 95 104 99 104 98 98 104 101 98 99 99 100 99 99 100 102 95 93 101 99 95 105 104 94 92 94 98 102 102 99 99 99 99 102 100 100 102 99 96 96 100 100 94 94 98 100 100 102 101 89 66 45 31 27 26 24 22 20 22 27 32 35 39 45 48 52 55 55 54 53 55 56 58
66 56 48 42 37 30 31 26 20 27 26 23 28 32 26 20 21 19 18 18 21 41 43 47 88 107 99 102 102 100 103 101 99 98 99 99 99 102 101 100 100 99 100 100 101 105 104 101 97 98 105 104 98 99 101 100 101 100 99 103 102 99 100 98 101 102 96 95 100 104 101 102 103 83 57 41 33 33 33 31 28 24 23 23 24 26 29 33 36 40 42 43 44 45 48 51 54
71 64 55 45 40 33 34 30 20 26 30 24 27 32 25 17 20 20 17 15 20 40 43 43 76 102 102 100 100 101 98 98 101 99 99 100 100 102 101 101 102 100 101 101 100 103 102 100 99 101 104 101 98 99 101 100 100 100 101 102 102 101 101 100 104 103 98 97 101 105 99 101 102 75 50 42 37 36 37 36 35 32 32 32 33 32 29 28 27 27 29 31 33 36 38 41 45
81 70 59 47 44 38 35 33 21 25 36 28 26 32 25 17 18 19 17 15 19 28 39 57 74 80 94 103 101 102 99 98 101 100 99 99 101 103 101 101 101 99 101 101 99 101 101 99 100 100 100 102 102 99 99 97 97 100 102 100 101 101 100 102 104 99 98 98 101 103 97 102 99 67 48 45 38 35 34 33 33 33 35 37 37 36 33 29 26 24 24 25 26 29 30 32 34
81 70 62 52 49 41 34 36 24 25 43 35 26 31 22 15 17 19 18 15 18 16 25 68 91 71 72 93 102 102 100 100 100 99 100 101 102 103 100 99 100 100 101 101 100 100 100 99 101 100 99 102 103 100 98 98 100 101 100 100 100 99 100 103 99 93 97 98 98 99 98 105 97 65 52 50 43 39 36 31 31 30 31 33 33 33 31 28 27 26 26 26 25 26 27 28 29
74 69 64 56 52 42 38 45 30 27 50 42 27 29 19 14 18 19 20 19 20 16 16 55 96 93 82 93 105 103 100 101 100 99 101 103 103 100 99 100 100 101 101 101 101 101 101 99 100 100 99 100 102 101 99 100 102 100 99 101 99 100 103 101 92 90 97 98 98 99 98 104 99 77 67 62 53 46 40 34 33 31 31 31 31 30 29 28 30 32 31 29 27 25 26 26 27
76 70 63 59 57 49 51 55 33 26 51 49 31 28 21 15 18 18 26 34 30 21 15 28 64 96 102 101 104 101 99 100 99 101 100 101 104 100 99 100 101 100 100 102 104 104 102 98 99 101 100 101 101 99 99 100 101 100 99 100 99 103 103 99 95 95 100 101 100 100 99 103 103 94 86 73 60 52 45 40 36 34 32 31 31 32 31 32 34 35 34 32 29 27 26 25 26
75 73 75 73 65 57 59 55 32 27 48 51 35 29 22 17 23 25 32 50 49 32 21 21 51 96 109 100 99 99 100 102 99 100 100 99 103 102 100 100 99 100 101 105 107 106 103 98 99 101 100 102 100 99 100 99 101 100 98 99 100 103 103 99 98 98 100 100 100 100 101 103 103 99 91 74 60 52 46 43 39 36 33 31 32 34 34 36 37 37 36 35 33 29 28 26 26
69 81 95 93 79 64 57 47 32 30 49 55 41 29 23 21 31 33 28 35 43 41 36 32 54 89 94 79 73 71 82 99 101 100 101 100 100 100 100 100 99 101 102 102 105 106 104 100 100 100 100 101 100 101 102 99 100 99 99 102 101 102 103 98 96 98 100 100 99 100 102 102 100 93 81 66 56 50 47 45 41 38 35 34 34 35 36 37 38 40 40 37 34 31 30 29 27
70 95 111 106 93 73 58 50 39 35 50 59 43 29 25 22 23 32 40 35 35 46 39 28 51 83 87 76 60 51 67 94 102 102 101 100 101 100 100 100 99 102 103 101 104 105 101 100 100 99 99 101 100 100 102 99 98 99 100 104 103 100 98 95 96 99 99 99 99 103 103 97 90 79 68 61 54 49 47 44 40 38 36 35 35 35 34 36 39 41 39 35 31 30 30 30 30
77 105 114 105 96 81 66 57 44 36 47 54 39 28 27 24 19 33 58 48 40 63 57 38 57 81 86 81 69 68 81 93 97 101 102 99 100 101 100 100 100 106 107 102 104 103 100 100 100 100 100 101 99 99 102 100 98 100 101 104 103 95 91 95 99 99 99 100 101 104 103 93 84 75 67 62 56 51 47 42 39 38 36 35 34 33 34 37 39 37 33 29 27 28 30 32 32
84 107 112 104 98 89 74 62 48 36 47 50 38 33 32 30 22 26 46 41 37 66 74 67 76 84 91 88 76 82 88 79 76 88 100 102 100 101 101 101 101 105 107 104 103 99 98 102 100 100 102 101 99 99 101 100 98 101 101 103 102 94 93 99 100 100 100 101 102 102 101 97 91 82 73 66 58 52 46 41 38 37 34 34 33 33 36 37 35 30 27 26 28 31 34 36 35
98 111 109 104 97 84 69 59 47 38 46 48 37 37 38 35 27 20 34 44 43 52 56 67 86 93 102 100 86 84 80 73 73 76 90 102 101 99 99 100 101 101 103 105 103 96 94 100 101 101 101 100 100 100 101 101 99 101 101 100 100 98 99 100 100 101 101 101 102 102 101 99 92 82 71 63 57 50 44 39 37 35 33 33 33 34 35 32 30 27 24 27 32 36 36 36 36
97 99 94 96 86 71 59 51 46 44 50 48 39 40 38 33 29 26 31 37 50 67 63 64 85 95 99 98 90 85 81 90 95 83 86 99 101 100 100 100 101 99 100 103 104 99 94 95 98 101 100 99 101 101 101 102 100 100 99 99 100 100 100 101 101 101 101 100 101 100 97 91 80 70 61 55 50 45 41 37 34 34 33 34 34 33 32 30 28 25 24 27 32 35 35 33 34
78 73 74 87 81 68 60 51 51 55 54 52 47 41 34 32 31 32 32 28 43 78 86 79 87 96 100 98 92 89 90 100 105 99 95 94 97 102 100 100 102 99 99 102 102 100 98 98 98 98 99 99 101 101 101 101 100 99 98 99 100 100 101 101 101 100 100 99 98 97 93 83 71 62 55 50 46 41 37 35 35 36 36 35 35 32 31 29 27 26 25 26 30 33 33 33 33
80 70 72 91 92 76 64 59 64 66 59 56 52 39 33 41 39 29 33 35 36 56 72 71 70 81 98 101 95 97 102 102 104 106 98 88 95 105 100 99 103 101 100 100 100 100 100 102 101 97 99 100 101 101 100 100 101 100 99 100 100 101 101 100 100 100 100 99 99 97 92 82 69 59 54 50 47 44 42 41 41 40 39 38 37 34 32 30 27 28 28 27 30 33 32 33 33
84 71 76 99 99 79 69 74 79 76 66 57 53 40 35 47 44 29 33 41 37 42 59 64 60 73 97 107 103 101 101 102 103 102 97 92 97 101 99 99 101 101 101 99 101 102 100 101 101 99 100 101 101 101 100 100 101 100 100 101 100 101 100 100 100 100 100 101 101 99 92 82 70 60 59 59 56 54 52 50 49 47 45 44 41 37 34 33 32 32 31 30 31 32 31 33 35
79 61 74 101 106 91 84 83 77 76 71 58 53 46 42 49 45 31 32 37 33 37 60 83 82 79 91 103 102 94 94 102 102 97 97 101 101 99 100 101 100 101 101 100 101 102 101 100 101 102 102 103 102 100 100 100 100 101 100 100 101 101 99 99 100 100 101 101 101 99 92 82 73 67 67 68 65 62 59 57 56 54 51 47 43 40 38 38 38 36 34 32 31 32 32 34 35
78 61 83 107 110 103 91 80 71 74 74 61 54 51 48 50 42 33 35 39 35 32 57 96 102 87 88 93 89 84 89 97 99 100 101 101 102 102 101 100 101 102 100 100 101 100 101 101 101 102 102 103 103 101 101 101 100 100 100 100 100 100 100 100 101 101 101 101 101 99 94 87 81 75 72 69 65 63 63 63 60 56 52 47 44 44 43 43 42 39 37 35 34 34 35 36 37
77 68 101 115 109 99 82 71 68 72 73 66 58 53 51 46 37 35 39 42 39 34 50 82 94 93 95 91 84 88 94 88 84 94 101 102 102 101 100 101 101 102 101 100 100 100 101 101 101 102 101 100 102 101 100 100 101 101 100 101 100 100 101 101 101 101 100 100 99 98 97 93 88 80 73 68 64 63 63 61 58 54 50 49 49 49 49 47 45 42 41 40 40 40 40 39 38
75 66 97 110 101 90 77 72 73 74 77 76 65 57 56 49 40 39 41 42 44 40 41 56 79 101 108 99 96 102 104 92 73 67 75 92 103 100 100 102 100 101 100 96 94 94 96 99 99 100 101 100 100 100 101 100 100 101 99 99 100 100 101 101 101 101 100 99 98 97 97 93 88 81 73 69 66 63 62 60 58 56 54 53 53 52 51 49 46 45 45 45 46 45 44 42 39
71 58 81 100 96 82 74 74 77 75 76 79 72 61 62 60 49 44 42 44 49 50 44 48 75 104 108 102 106 108 101 89 75 60 56 74 96 101 100 100 98 95 89 85 84 80 80 86 91 92 96 100 100 99 100 100 100 102 102 101 101 100 101 101 101 101 100 100 99 98 97 94 90 84 78 74 70 67 65 63 59 57 55 54 53 52 51 49 48 48 49 49 50 49 46 42 40
76 62 82 107 105 92 83 77 77 77 75 78 76 66 67 68 57 49 49 50 55 58 52 49 70 98 105 103 105 107 100 89 82 76 67 71 89 95 89 81 78 75 69 73 82 75 65 67 74 77 80 88 96 99 100 101 100 100 101 102 103 102 101 102 101 102 101 100 100 100 100 98 94 89 84 78 73 70 67 63 59 57 56 55 53 52 50 50 51 51 52 53 52 49 46 42 40
Wind_Speed
53 53 54 55 55 56 57 54 53 53 49 47 46 48 53 54 56 55 56 50 45 43 33 38 49 49 52 53 51 47 49 49 49 50 44 41 41 42 42 44 44 42 43 44 45 44 45 45 43 42 40 40 39 39 38 36 34 33 32 31 31 31 31 31 31 29 27 25 23 22 22 21 20 18 17 15 13 13 13 13 13 14 15 15 16 16 17 17 16 15 15 15 14 14 13 12 12
54 55 55 54 54 54 55 52 51 51 47 44 44 47 50 52 53 55 55 46 43 39 25 39 54 48 50 50 46 42 45 49 48 46 44 44 44 44 45 46 46 46 44 44 45 45 46 43 41 40 39 39 38 38 37 35 34 32 31 31 31 31 31 30 29 28 26 24 23 22 22 21 19 18 16 14 13 13 13 13 13 14 15 15 15 15 16 15 15 16 15 15 14 13 13 14 14
55 56 56 55 55 55 55 52 50 51 46 42 44 46 49 51 51 52 49 42 39 35 30 44 50 43 45 45 42 38 39 47 45 42 43 44 43 43 46 48 47 46 45 45 44 45 45 42 40 39 39 39 38 37 36 34 33 32 31 30 30 30 30 30 28 27 25 23 23 22 22 21 19 17 15 13 13 13 13 13 13 14 15 15 14 13 14 15 16 16 16 16 15 15 15 16 16
57 57 57 56 56 55 56 53 50 50 46 43 45 47 48 49 48 50 48 40 37 35 36 44 45 41 43 41 39 37 35 42 43 41 42 44 44 43 46 48 47 46 46 46 45 44 43 41 40 39 39 38 38 36 35 34 33 32 31 30 29 30 29 28 27 26 24 23 22 22 21 20 18 16 14 13 12 12 12 13 13 14 14 14 13 13 14 15 16 17 17 17 18 18 18 18 19
57 58 57 57 57 57 56 52 50 49 47 46 47 48 49 48 47 52 48 37 34 35 39 43 43 44 43 40 39 36 33 37 42 42 43 44 43 44 47 48 46 46 47 46 44 43 41 40 40 39 39 38 37 35 34 33 32 31 30 29 29 29 28 27 26 25 23 22 22 22 21 20 18 15 13 12 11 12 12 13 14 13 14 14 13 12 13 15 16 17 17 18 19 19 20 20 20
57 58 58 57 58 57 55 52 50 49 48 48 47 48 49 48 49 52 45 33 33 39 44 44 43 45 42 41 41 36 33 37 40 43 45 42 42 45 48 47 46 47 46 42 40 41 41 40 40 39 38 37 36 35 34 32 31 31 29 29 28 28 27 26 25 24 23 22 22 21 21 19 18 15 13 12 12 12 12 13 14 13 13 14 14 13 13 14 15 16 17 18 19 20 20 21 21
58 59 58 58 59 57 55 52 50 49 49 49 48 49 48 50 52 49 42 35 38 45 47 44 44 47 43 41 42 36 34 38 41 44 44 40 41 44 47 46 45 44 42 39 38 40 41 40 39 38 37 36 35 34 33 32 31 30 28 28 27 27 26 25 25 24 23 22 21 21 21 19 18 15 14 13 13 13 13 14 14 13 13 14 14 13 13 14 15 16 18 19 19 20 20 20 20
60 60 59 59 58 57 54 51 51 49 49 50 49 50 49 54 53 43 41 39 40 46 47 43 45 48 44 42 39 37 37 37 40 43 43 40 40 43 45 44 42 42 41 39 39 40 40 40 38 37 37 36 35 34 33 31 30 29 28 27 27 26 26 25 25 24 22 21 21 21 21 20 18 16 14 13 13 13 14 14 14 13 13 14 14 14 13 14 15 16 18 19 19 20 19 20 20
62 61 60 59 58 57 53 51 51 49 50 51 50 50 50 55 50 41 42 41 44 49 46 44 46 49 46 40 37 38 38 38 41 43 42 40 41 43 42 40 40 42 42 40 40 40 40 39 37 36 36 35 35 34 32 30 29 28 28 27 27 26 26 25 24 24 22 21 21 21 21 20 18 17 15 14 13 13 14 14 14 13 13 14 14 14 13 14 15 16 18 19 19 18 19 19 20
63 62 62 61 59 56 53 51 49 50 50 50 51 50 50 53 50 44 40 39 48 49 45 46 46 50 47 39 37 38 37 38 42 43 42 41 41 42 40 39 40 43 44 41 40 40 39 37 36 36 35 35 34 33 32 30 29 28 27 27 27 26 26 25 24 23 22 22 22 21 21 20 19 17 15 14 14 14 14 14 14 13 13 13 14 14 14 14 15 16 17 18 17 17 18 19 20
64 63 64 63 60 56 54 52 51 51 50 52 52 49 50 52 50 44 37 40 50 49 47 49 47 51 49 39 39 41 39 40 42 43 42 41 42 42 41 40 42 46 44 41 40 40 38 36 36 35 35 34 34 33 31 30 29 28 27 27 27 27 26 26 24 23 23 22 22 22 21 20 19 17 16 15 14 14 14 14 13 13 13 13 13 14 14 14 15 16 16 16 16 17 18 19 20
66 65 65 64 61 57 56 56 55 53 53 55 50 51 54 51 49 42 40 48 51 50 51 50 49 53 49 39 41 43 42 42 42 44 44 43 44 44 43 42 44 46 43 41 40 39 37 36 36 35 34 34 34 33 32 30 29 28 27 27 27 27 26 26 25 24 23 23 23 22 21 20 20 18 17 16 15 14 13 13 13 13 13 13 13 14 14 14 15 16 16 16 16 17 18 19 21
67 68 67 65 63 60 58 58 57 56 56 55 52 56 55 49 49 41 46 55 51 51 53 53 52 52 48 41 42 45 43 42 42 44 44 44 45 46 44 43 45 45 43 42 40 39 38 37 36 35 35 34 33 33 32 31 29 28 28 27 27 27 27 26 25 24 24 24 24 23 22 21 20 19 18 18 16 14 14 13 13 14 14 13 13 14 15 15 15 16 16 16 17 18 19 20 21
69 71 69 66 64 62 59 58 58 59 58 57 58 60 55 50 47 42 51 57 51 50 52 54 54 50 48 43 43 46 45 43 43 44 44 46 47 47 45 43 45 45 43 41 40 39 37 37 36 36 35 34 34 33 32 31 30 28 28 27 27 27 27 26 25 25 25 24 24 23 22 22 21 20 20 19 17 16 14 14 13 14 14 14 14 14 15 16 16 16 16 17 18 19 20 21 22
71 73 72 68 66 63 61 60 59 61 60 60 62 59 54 49 46 49 56 54 51 52 51 54 56 52 48 43 45 47 45 45 46 46 46 48 48 48 46 45 45 45 42 40 39 38 37 37 36 36 35 35 34 33 32 31 30 29 28 28 27 27 27 26 26 25 25 25 24 23 23 22 22 21 21 20 19 17 16 15 14 14 14 15 15 15 16 16 16 16 16 17 18 20 21 22 22
73 74 73 69 66 64 63 63 62 63 63 65 63 56 53 50 50 55 57 54 54 55 53 56 56 53 48 41 44 47 45 47 48 47 47 47 48 48 47 45 45 43 40 39 38 37 38 38 37 37 36 35 34 33 32 31 30 29 29 28 28 28 27 27 26 26 26 25 24 24 24 23 22 22 22 22 20 19 18 16 15 14 15 15 16 16 16 16 16 16 17 18 19 20 22 22 23
76 75 73 69 66 65 65 66 67 67 67 68 61 56 56 52 54 57 57 57 56 57 56 57 57 53 48 42 46 50 46 48 48 48 48 47 47 46 45 44 44 42 40 40 40 40 40 39 39 38 37 36 35 33 33 32 31 30 29 29 28 28 28 27 26 26 26 25 25 24 24 24 23 23 23 23 22 21 20 18 17 16 15 15 15 16 17 17 17 18 19 20 20 20 21 22 23
76 75 73 70 67 66 67 69 70 70 70 70 64 60 57 52 57 59 58 58 57 60 58 59 59 51 49 47 49 51 47 47 47 47 47 46 45 45 45 44 43 41 42 43 43 42 42 41 39 38 37 36 35 34 33 33 32 31 30 29 29 29 28 27 27 26 26 25 25 25 25 25 24 24 24 24 23 22 21 20 18 17 16 16 15 16 18 19 20 20 21 21 20 21 21 22 23
75 74 73 70 68 68 70 71 72 74 75 72 63 56 53 53 62 62 59 60 60 62 61 61 59 51 51 51 50 49 48 48 48 48 47 45 46 47 47 45 44 45 45 46 45 44 43 42 40 39 38 36 35 35 34 33 32 31 30 30 29 29 28 28 27 26 26 26 26 25 26 26 26 25 25 25 24 24 23 22 20 19 18 17 17 18 19 20 21 22 22 22 22 22 21 21 21
72 73 72 70 70 71 73 73 75 78 75 68 58 51 52 59 66 65 60 62 62 62 62 61 55 49 49 49 48 47 47 48 48 49 48 48 48 48 48 46 47 47 47 46 45 45 43 42 40 39 37 37 36 35 35 34 33 32 31 30 30 29 29 28 28 27 27 26 26 26 26 26 27 26 26 25 26 25 24 23 22 20 19 18 18 18 19 19 20 22 23 24 24 23 21 20 19
69 70 69 69 72 73 74 76 78 77 69 63 61 54 56 65 71 67 61 62 64 63 63 59 51 46 45 43 44 45 46 47 47 48 48 49 48 48 49 48 48 47 46 46 45 44 43 42 40 39 38 37 36 35 35 34 33 32 31 31 30 30 30 29 29 28 27 27 26 26 26 26 27 27 26 26 26 26 25 24 23 22 21 20 19 19 19 19 20 22 24 25 25 23 21 19 17
66 67 66 68 71 72 76 78 76 72 65 65 67 58 58 69 71 65 61 62 65 65 64 60 50 47 48 44 45 47 47 48 48 48 47 47 48 50 51 49 48 45 44 44 44 44 43 42 41 40 39 38 37 35 35 35 34 33 32 32 31 31 30 30 30 29 28 28 27 27 26 26 27 27 27 28 28 27 25 23 21 21 20 19 19 20 19 19 20 23 24 24 23 21 20 19 17
66 67 66 67 69 71 75 75 70 68 67 69 68 60 61 69 67 64 63 62 65 64 63 59 48 47 51 48 48 48 48 49 48 48 47 47 49 51 51 49 47 45 44 44 44 44 44 43 42 41 39 38 38 36 36 36 35 34 33 33 32 32 31 31 31 30 29 28 28 28 27 27 27 27 27 28 27 23 20 19 18 19 19 19 19 21 19 19 21 22 23 22 21 20 20 19 19
67 68 66 66 67 69 70 68 65 64 68 69 67 62 63 67 66 65 65 62 65 63 60 57 45 45 51 48 46 44 45 45 43 44 45 48 50 49 49 48 47 46 45 45 46 46 45 44 43 41 40 39 38 37 37 36 36 35 35 35 34 34 33 33 32 31 30 29 29 29 28 28 28 28 26 24 22 19 17 19 21 22 21 21 22 22 20 21 22 22 22 22 21 21 21 22 21
66 67 67 67 68 67 65 64 60 60 65 66 64 63 63 67 66 65 64 61 65 63 58 55 44 46 52 46 40 37 36 36 36 39 41 46 48 48 49 49 49 49 47 48 48 47 46 45 43 41 40 39 38 38 38 37 37 37 36 36 36 36 35 34 33 32 31 30 30 29 29 29 29 28 25 22 21 20 20 23 25 25 24 25 27 25 25 25 24 23 23 23 24 24 25 25 25
64 66 68 68 68 66 63 60 57 56 61 61 59 61 61 63 63 63 62 61 65 62 55 51 44 48 52 43 37 34 30 28 29 31 34 39 43 45 47 48 51 52 52 52 51 49 47 46 44 42 40 40 39 39 38 37 37 38 38 37 37 37 36 36 34 33 32 31 31 30 30 29 28 26 24 22 22 20 21 24 25 26 29 30 31 29 28 28 27 27 26 27 27 27 27 27 27
64 65 68 68 67 67 62 56 55 55 58 56 53 55 56 57 58 59 58 60 63 57 50 48 44 47 48 38 32 27 22 20 21 26 27 29 37 44 46 49 53 52 54 54 52 50 47 46 44 42 41 39 38 38 37 38 38 37 36 36 36 36 36 36 35 33 33 32 30 30 29 29 27 24 22 23 24 22 21 25 28 32 34 34 33 32 31 31 30 30 30 30 30 29 30 29 30
65 65 67 67 65 65 61 56 56 56 55 53 50 51 50 50 51 52 54 56 55 50 46 44 42 42 41 33 25 17 15 20 28 34 30 26 35 46 49 51 51 47 47 48 48 47 46 45 43 41 39 36 35 35 35 35 34 32 31 32 34 34 34 34 34 33 32 30 29 29 28 26 25 23 23 26 26 26 27 30 33 35 36 35 35 34 34 34 33 33 32 32 32 32 32 33 33
65 66 64 64 64 62 60 58 58 56 54 52 50 48 46 46 46 47 50 48 44 42 39 36 35 36 34 28 22 21 26 34 36 34 28 23 34 48 51 49 43 39 40 41 42 42 42 42 40 38 34 29 29 29 28 27 25 25 27 29 30 31 31 31 31 30 28 28 28 27 25 24 25 24 25 27 29 30 31 33 35 36 37 37 37 37 37 36 35 35 35 34 35 35 35 36 36
63 65 62 63 63 59 58 59 59 57 54 53 51 46 45 45 44 45 44 39 36 35 29 25 26 27 27 25 25 26 29 32 30 25 21 22 35 46 49 45 37 34 35 38 39 38 38 38 36 32 26 23 23 22 20 17 17 19 20 21 23 25 27 27 27 27 27 27 26 24 24 25 25 25 27 29 31 32 33 35 37 38 39 38 38 38 38 38 38 37 37 37 37 37 37 38 39
60 62 60 62 61 57 58 59 59 57 56 55 51 46 46 45 45 44 37 33 31 25 23 26 27 27 29 28 28 28 26 26 26 23 23 27 38 42 39 39 36 35 35 36 36 35 34 33 31 26 22 23 21 17 14 12 13 14 14 17 20 22 24 24 24 25 27 26 25 24 25 26 25 26 29 30 32 34 36 38 39 40 40 40 40 40 40 40 40 39 39 40 40 40 40 41 41
57 57 57 59 59 56 57 58 58 57 58 56 52 48 48 48 46 38 28 27 26 22 27 36 37 37 38 36 33 31 29 31 31 31 32 34 41 40 35 36 34 33 34 34 32 31 30 29 27 24 24 24 19 13 12 11 12 16 16 17 20 21 22 21 23 23 23 23 24 24 24 24 25 27 29 30 34 37 38 39 39 40 41 41 41 42 42 42 42 42 42 43 43 44 43 43 43
53 52 53 57 58 57 56 57 57 58 59 57 53 51 51 51 44 31 26 29 27 27 33 37 40 41 41 42 40 35 33 36 38 38 35 37 44 44 40 38 31 25 25 26 24 24 27 28 26 26 25 22 16 12 12 13 15 17 17 18 19 20 19 19 20 18 18 19 20 22 23 22 23 27 30 32 36 38 40 41 41 42 42 43 43 44 45 45 45 46 46 46 46 45 45 44 44
51 50 53 56 58 56 55 57 58 58 58 56 55 54 54 52 41 32 33 32 29 30 33 36 40 41 40 42 44 41 39 40 42 41 38 43 50 52 50 46 40 35 31 27 25 27 29 27 26 25 23 19 16 14 15 18 18 16 16 19 18 16 16 16 15 14 16 16 16 20 21 20 23 28 31 35 39 41 42 43 43 44 44 45 45 46 47 47 47 47 47 47 47 46 46 45 46
51 50 53 54 57 54 53 58 57 54 55 56 57 56 58 53 41 36 36 34 30 30 32 36 41 42 40 41 42 43 44 44 43 42 43 48 51 52 53 50 45 42 38 32 33 35 28 22 23 23 22 20 17 18 19 22 22 18 16 18 14 11 14 16 15 16 17 16 17 20 21 21 26 31 35 39 41 43 43 43 44 44 45 45 46 47 48 48 47 48 48 48 47 47 47 47 47
52 51 52 53 56 53 54 59 54 50 55 57 56 58 61 54 44 41 39 36 34 33 34 37 42 44 42 42 43 43 45 46 44 42 44 49 51 50 48 47 44 42 41 37 37 36 28 21 23 25 23 19 18 19 21 23 24 22 18 15 12 12 15 17 19 17 12 12 17 22 24 25 31 36 40 41 41 42 42 43 43 43 44 45 46 47 47 48 48 49 49 49 49 48 48 48 47
53 52 52 53 54 52 55 59 53 50 55 56 56 60 62 55 47 46 42 37 36 36 36 38 43 44 42 43 44 45 45 45 43 43 44 47 51 51 48 47 45 44 46 45 42 38 31 24 25 28 25 21 22 22 21 23 23 23 22 17 15 17 18 18 20 17 13 12 19 27 29 30 36 40 40 39 39 40 40 41 41 41 42 43 44 45 45 46 47 48 48 49 49 49 48 48 47
54 52 52 52 52 52 55 58 53 50 54 56 56 59 62 56 50 49 45 40 39 39 38 38 42 45 44 44 45 46 47 47 47 46 46 48 50 50 50 49 46 46 48 48 46 43 37 30 29 30 28 28 29 26 24 25 24 24 23 20 18 19 20 18 19 21 21 20 26 34 34 34 40 40 37 37 37 38 39 39 39 40 40 41 41 42 43 43 44 45 45 46 47 47 48 47 47
55 53 52 50 50 53 54 56 54 49 52 57 56 60 63 56 51 50 47 45 44 41 39 38 40 43 44 45 46 47 49 51 52 52 50 50 49 48 48 48 47 48 50 48 47 45 41 37 35 33 31 30 30 28 28 29 28 25 21 21 20 20 21 20 22 25 24 26 33 38 37 38 41 37 36 37 38 38 38 38 39 39 39 39 39 40 41 41 41 41 42 43 44 45 45 46 45
56 53 52 49 49 54 52 53 54 48 51 59 57 61 63 53 48 51 50 49 47 44 41 39 39 41 42 43 45 49 51 51 52 54 53 51 49 48 47 47 46 49 51 49 46 44 41 40 38 35 33 31 28 27 28 29 29 25 22 23 24 24 24 23 26 25 24 29 37 40 38 42 41 38 39 40 40 40 39 39 40 39 39 39 39 39 39 38 38 39 40 41 42 43 44 44 44
56 53 52 49 50 51 48 53 55 48 52 60 58 61 60 50 48 51 52 51 49 47 46 42 40 40 42 43 45 49 52 50 51 54 54 52 49 46 46 47 48 49 49 46 42 40 40 42 39 36 36 34 30 28 29 29 27 26 26 27 28 28 25 25 26 26 28 33 39 41 41 45 43 41 43 43 43 42 41 42 41 41 42 42 42 41 39 38 38 40 41 42 42 43 44 44 44
55 53 51 48 49 49 50 58 56 48 52 59 58 58 55 48 48 50 50 50 51 51 49 46 43 41 43 46 46 48 50 51 52 54 55 53 49 46 45 47 49 49 47 44 41 38 39 42 42 39 37 35 32 31 31 28 26 26 28 29 30 30 26 28 27 30 34 39 42 43 45 48 46 45 46 45 45 44 43 43 43 44 45 45 45 43 41 41 41 42 42 42 43 43 44 44 45
54 52 50 50 51 50 55 60 52 48 53 58 58 56 53 48 47 48 50 51 52 52 50 49 47 45 45 47 46 46 49 52 53 55 55 54 51 48 47 47 48 49 47 46 45 41 38 41 43 39 37 35 33 33 31 28 27 28 29 30 31 29 31 33 34 37 41 44 45 47 49 51 49 48 47 46 45 44 44 44 44 45 45 45 45 44 44 44 44 44 43 43 44 45 46 46 45
53 50 51 53 53 54 58 56 48 48 53 58 58 55 52 48 45 48 52 54 54 52 51 50 50 49 47 46 46 46 48 52 55 56 57 56 54 51 49 47 47 46 45 46 47 43 38 40 41 38 36 35 33 32 31 29 28 30 32 31 29 30 35 38 39 42 44 47 48 50 52 53 50 48 47 45 44 44 44 45 45 46 46 46 46 46 46 46 46 46 46 46 47 47 48 47 47
52 52 55 57 56 55 56 53 49 50 54 58 58 54 50 47 47 49 49 52 53 50 52 54 52 50 47 46 47 45 44 50 55 56 57 58 58 55 52 49 47 43 40 41 43 41 38 39 39 38 38 37 36 34 32 31 30 32 36 35 30 31 35 39 41 43 47 49 50 53 54 51 48 46 45 44 45 45 45 46 46 47 47 48 48 48 48 48 47 47 47 48 49 50 50 49 48
54 56 59 60 57 56 55 53 53 52 53 57 56 50 48 47 50 50 46 49 52 50 51 54 53 51 48 48 48 45 43 47 52 54 55 58 59 58 54 52 50 44 37 37 41 41 39 39 39 39 39 38 38 38 35 34 34 35 39 39 36 34 36 39 42 45 48 50 53 55 52 49 46 45 44 45 45 46 47 47 48 49 49 49 50 50 49 48 47 47 49 52 54 54 52 50 48
56 60 62 60 58 57 55 54 54 49 49 54 52 47 47 49 52 50 47 50 53 52 51 51 51 51 49 49 49 48 46 47 49 50 53 55 56 56 55 55 53 47 40 38 40 42 41 41 41 40 40 39 39 40 39 37 36 36 37 38 39 38 39 41 44 47 50 55 58 56 52 48 47 45 45 46 46 47 48 48 49 50 50 51 51 50 48 47 47 50 54 56 55 53 50 49 48
59 63 62 60 59 59 56 54 50 42 42 49 49 47 50 53 52 48 49 51 52 54 55 52 51 50 50 49 49 48 47 47 48 48 52 53 52 52 54 55 52 48 46 44 42 43 44 44 42 40 41 42 41 42 42 40 38 37 36 36 38 39 41 45 48 52 56 59 58 54 51 48 46 46 46 46 47 48 49 49 50 50 51 52 51 49 48 48 51 54 56 55 51 48 48 48 48
62 63 60 59 60 58 53 49 41 34 41 50 51 52 54 55 50 46 49 51 51 53 56 57 55 52 52 52 51 50 48 47 47 48 50 50 51 51 51 51 49 45 46 46 44 44 45 46 43 39 41 44 44 44 45 43 40 39 37 38 40 43 45 49 52 54 54 52 50 49 48 46 46 47 47 48 49 50 50 51 52 52 53 52 51 50 50 52 55 56 57 54 48 47 48 49 50
62 59 56 58 58 54 49 44 37 36 46 52 54 56 53 50 48 47 50 52 52 53 54 57 57 53 51 52 53 52 49 47 48 50 49 48 51 53 52 50 47 44 44 46 44 43 45 46 43 39 41 45 46 46 46 44 41 40 41 43 45 48 50 51 52 50 48 47 48 48 48 48 49 49 50 51 51 52 53 54 54 53 53 53 53 53 54 56 58 59 59 55 50 49 50 52 53
61 57 55 57 57 53 48 43 40 42 49 54 56 55 47 45 50 51 51 51 52 53 53 57 59 55 51 51 51 50 49 49 51 50 47 47 50 52 53 54 51 47 45 47 47 45 46 47 44 41 42 44 46 48 48 47 44 44 45 48 50 52 53 53 52 50 50 50 50 50 51 51 52 52 52 53 53 54 54 54 53 53 53 54 54 55 57 59 61 61 60 57 53 52 54 55 56
62 58 55 56 55 53 49 48 47 48 52 56 57 53 46 48 54 53 50 51 52 51 50 54 59 58 55 53 51 51 53 53 53 51 46 45 48 50 52 56 56 52 49 49 50 50 49 48 48 47 46 46 46 48 51 50 49 49 50 52 53 54 54 54 53 53 52 51 51 52 53 53 53 53 53 53 53 53 53 53 53 53 54 54 55 57 59 61 62 61 60 58 56 56 58 59 60
61 56 52 53 56 57 55 54 52 50 53 55 54 51 47 49 53 50 48 50 51 49 47 49 54 57 56 55 54 55 56 56 54 50 45 45 49 52 53 54 56 57 55 53 54 53 52 51 51 52 51 50 49 48 50 52 52 52 52 54 55 56 56 55 55 54 53 52 53 53 54 54 54 53 53 52 52 53 53 54 54 54 54 55 57 59 60 61 60 60 60 59 59 60 61 62 63
59 52 48 55 62 63 59 55 52 50 51 51 51 51 48 49 51 48 46 48 51 51 48 47 49 52 54 56 56 56 58 60 56 50 48 49 50 52 55 56 58 59 59 58 57 57 56 54 53 54 54 54 54 52 52 53 55 55 55 55 56 56 57 57 56 56 55 54 54 54 54 54 54 54 54 55 55 56 56 55 55 55 56 57 59 60 60 59 59 60 61 62 62 64 65 65 66
57 51 54 63 65 61 57 53 49 48 47 47 49 50 49 50 51 48 46 48 50 52 51 50 49 50 53 56 56 57 59 61 60 56 54 54 52 51 54 57 59 60 61 61 60 60 60 58 57 57 56 57 58 57 57 57 58 58 58 58 58 58 58 58 58 57 56 56 56 55 55 55 56 57 57 58 59 58 57 56 56 57 58 60 60 59 59 60 61 64 65 66 66 67 67 67 67
58 56 60 64 62 59 56 51 48 47 46 46 48 49 48 49 49 48 48 48 48 51 53 52 52 53 55 55 54 56 60 62 62 62 60 59 55 52 53 55 58 61 61 61 62 63 62 62 61 60 60 60 60 61 61 61 62 61 61 61 61 61 60 60 59 59 58 58 57 57 57 58 58 59 60 59 58 58 57 57 58 59 60 60 60 60 61 64 66 68 68 68 69 69 68 69 69
59 56 56 59 59 58 55 51 49 48 46 45 47 47 47 48 49 48 48 48 48 51 51 50 54 57 57 55 55 58 61 61 61 63 64 62 58 55 55 56 58 60 61 62 63 64 64 64 63 62 61 61 61 62 63 64 65 64 64 64 64 64 63 62 62 61 60 59 58 58 59 59 59 58 58 58 57 57 57 59 60 61 62 62 63 64 66 68 69 70 70 70 69 69 69 70 69
59 55 53 57 60 58 55 51 49 47 45 44 46 46 47 50 50 49 48 49 50 52 51 50 53 56 56 55 58 59 60 61 61 62 64 63 60 58 58 59 61 61 62 62 63 64 65 65 65 64 63 62 61 61 62 64 66 66 66 65 65 65 64 63 63 61 60 59 58 58 57 57 57 57 57 57 58 59 60 62 63 64 65 65 66 67 68 70 71 71 71 71 70 70 70 70 69
Wind_Direction
240 239 239 239 240 240 241 242 242 242 241 242 242 243 244 245 247 249 250 251 252 252 254 259 257 254 256 257 257 258 258 259 261 265 268 270 273 274 275 275 273 276 281 282 283 287 288 290 292 295 296 297 298 298 299 300 302 303 304 305 306 307 307 308 309 308 306 304 301 299 298 297 297 296 294 294 297 298 298 299 302 306 308 309 312 315 314 312 309 309 309 311 311 310 309 309 310
240 240 239 239 239 240 241 241 241 242 240 240 241 242 244 246 247 248 249 251 253 254 257 257 256 254 255 256 257 258 260 260 262 266 269 270 273 274 275 273 272 276 279 282 285 287 288 291 294 295 296 296 297 297 299 301 303 303 304 305 306 307 307 308 308 307 306 305 302 300 299 298 298 296 292 291 295 296 295 297 301 307 308 310 313 315 314 311 309 307 306 305 305 306 307 307 308
241 241 241 240 239 239 241 239 240 242 240 238 241 242 244 245 247 249 251 252 254 255 250 250 253 253 254 257 259 261 259 259 264 269 270 270 272 272 273 273 275 278 280 282 285 287 289 293 295 295 295 295 296 298 300 301 302 302 304 305 306 306 307 307 308 307 307 305 303 301 300 299 298 296 293 290 292 293 294 296 303 308 308 310 312 312 312 311 309 307 304 301 300 301 302 304 305
241 241 241 241 241 240 240 239 239 242 241 238 240 242 243 245 247 249 248 247 253 256 250 248 252 253 256 260 261 263 260 259 265 268 269 269 270 272 272 274 277 277 278 280 284 288 291 293 293 293 294 294 296 298 300 301 301 302 303 304 305 306 306 307 308 308 307 306 304 302 300 299 298 296 293 291 291 291 294 299 305 309 310 311 309 307 308 309 308 307 305 301 299 299 301 302 303
242 242 241 241 241 241 241 241 239 241 241 238 238 242 243 243 246 247 246 247 255 256 250 248 252 255 257 261 261 261 261 263 264 264 265 266 269 272 272 274 276 277 278 280 284 288 290 291 291 292 293 294 296 297 299 300 301 302 303 304 305 305 306 308 308 309 308 306 304 302 301 299 297 295 293 292 291 292 297 302 307 309 311 312 307 302 304 309 310 308 307 305 302 300 301 302 303
242 242 241 241 241 241 241 240 240 240 240 240 238 241 243 243 244 247 249 247 251 251 249 250 254 257 258 260 260 261 262 264 263 262 263 265 268 270 271 273 275 277 280 282 285 287 288 289 290 291 292 293 295 296 298 300 301 302 303 305 305 305 307 308 309 308 307 306 304 303 301 299 297 294 291 291 291 294 299 304 307 308 310 312 308 301 300 308 313 312 311 309 306 304 303 304 304
243 242 242 241 241 241 241 240 241 240 240 241 240 240 243 244 243 247 252 247 247 250 252 255 256 257 257 258 262 262 259 260 260 260 262 266 267 268 271 274 277 278 281 284 285 285 286 287 289 291 292 293 294 296 298 300 301 302 304 304 305 306 307 308 308 308 307 307 305 303 302 299 296 294 291 290 292 295 300 304 306 307 310 312 309 303 299 303 310 313 313 311 308 306 305 305 306
244 244 243 243 243 242 241 241 241 241 241 242 242 242 242 244 246 248 253 249 248 251 253 256 256 257 256 257 261 260 256 255 257 260 262 264 265 269 273 276 279 280 281 283 283 283 285 287 290 291 291 292 294 296 299 301 301 302 303 304 304 306 307 308 308 308 308 307 305 304 302 299 296 293 292 292 293 297 301 304 304 305 309 311 309 305 302 302 306 311 312 311 308 306 306 307 308
244 245 245 244 244 244 242 242 243 242 242 243 243 243 242 246 248 246 249 251 249 251 255 255 255 257 256 256 258 257 256 256 260 263 264 264 266 270 272 275 279 279 279 281 282 283 285 288 290 290 291 292 294 296 299 300 300 301 302 303 304 305 306 307 307 308 308 307 305 303 301 299 296 293 293 294 295 299 302 303 303 305 310 311 308 305 303 303 305 308 311 311 309 307 307 309 311
244 244 246 245 245 245 244 243 244 243 243 244 243 243 244 247 248 245 248 252 250 251 254 254 255 257 257 255 255 256 258 258 260 261 262 266 269 270 272 275 277 277 278 280 281 283 285 288 288 289 290 291 293 296 298 298 299 300 301 302 303 304 305 307 307 308 308 307 304 302 301 299 296 294 293 294 296 300 303 302 302 305 310 312 308 304 303 303 304 307 310 311 310 308 309 311 313
244 244 245 245 244 245 245 243 243 244 243 244 244 245 245 247 248 247 247 248 250 252 252 253 255 257 257 255 256 257 259 259 258 261 264 268 269 269 273 276 275 275 278 281 282 283 285 286 287 288 289 291 292 294 296 297 298 299 300 301 302 304 306 307 308 308 308 306 304 302 301 299 297 296 296 295 298 302 303 301 302 306 311 312 309 305 302 303 304 307 309 311 310 310 311 312 313
244 244 244 245 243 243 245 243 242 243 243 244 245 245 244 246 250 249 249 248 250 253 252 253 254 257 259 257 259 259 258 259 261 264 266 268 269 270 273 275 275 277 280 281 282 284 285 285 286 287 288 290 291 293 294 295 297 298 299 300 302 304 305 307 308 309 308 306 304 303 302 301 298 298 297 297 299 302 303 302 304 307 310 310 307 304 302 302 304 306 307 308 308 309 310 311 311
243 244 244 245 244 242 244 244 243 243 244 245 244 245 245 247 251 251 250 250 249 252 254 254 253 257 260 258 260 261 260 261 263 265 266 269 271 272 274 275 276 278 280 281 283 285 285 285 286 287 288 290 291 292 293 295 296 298 299 300 302 303 305 307 309 310 309 307 306 306 305 303 301 299 298 298 300 303 302 302 304 307 307 305 303 301 301 301 303 304 305 304 305 306 308 308 308
243 244 243 243 244 243 243 245 245 244 244 245 243 244 246 247 251 250 247 249 250 252 255 257 256 256 259 259 260 263 264 264 266 267 268 270 272 274 276 276 277 279 281 283 284 285 285 286 287 288 289 290 290 291 292 294 296 297 299 300 301 302 304 306 309 310 309 309 309 309 308 306 303 300 299 299 301 302 301 301 303 306 306 303 299 297 298 299 301 302 301 301 302 304 306 307 307
242 244 243 242 244 244 243 245 245 245 244 244 243 244 247 247 249 247 246 249 252 253 254 257 258 258 258 261 263 266 267 268 268 268 269 270 272 274 276 277 278 281 283 284 285 286 287 288 289 289 290 289 289 291 292 294 295 297 298 299 300 301 303 305 308 310 310 311 311 310 309 308 305 302 300 300 302 301 300 299 301 303 304 302 299 297 296 298 299 299 299 299 301 303 304 305 305
243 243 244 242 243 244 244 245 245 246 245 244 244 245 247 246 245 247 249 251 252 253 254 256 258 260 261 263 266 267 267 269 269 270 271 272 273 275 277 278 280 281 281 283 286 286 288 290 290 290 289 289 290 291 292 293 294 295 297 298 299 300 302 305 308 310 311 312 312 311 310 309 307 304 302 302 302 302 300 299 300 301 301 301 300 299 298 298 298 297 298 298 299 301 303 304 304
243 243 244 244 243 244 244 245 245 245 245 245 244 245 245 245 247 249 251 251 252 253 254 256 259 261 263 263 265 265 266 269 270 271 271 273 274 276 277 279 281 280 279 284 286 285 289 291 290 290 290 290 291 291 292 292 293 294 296 297 298 299 301 304 307 310 311 313 313 312 311 311 309 306 304 304 304 303 302 301 301 301 300 300 299 300 300 299 297 296 297 297 298 299 301 302 303
243 244 245 244 243 244 244 244 245 245 246 245 243 243 245 247 250 249 250 252 253 254 255 257 259 261 264 264 263 265 267 268 269 270 271 273 274 275 278 279 280 279 280 285 286 286 289 290 290 291 290 291 291 291 291 291 292 293 295 296 297 298 300 303 306 309 310 312 312 312 312 312 310 308 306 305 304 303 303 302 302 302 301 300 298 297 297 297 297 296 296 296 298 299 300 300 302
243 244 244 244 244 244 243 244 244 245 244 244 244 246 249 249 250 250 250 252 253 254 255 257 260 261 263 263 263 266 267 267 268 270 272 272 273 276 278 278 279 279 282 284 285 287 288 289 289 290 290 291 291 290 290 290 292 292 294 295 296 297 300 302 305 307 308 310 311 312 312 312 310 308 307 305 304 304 303 303 302 302 302 301 299 297 296 296 296 297 297 297 299 301 301 300 302
242 243 244 244 244 243 243 244 244 245 245 248 249 247 248 248 249 249 248 251 253 254 255 256 259 260 261 264 265 266 266 267 268 270 272 272 274 276 276 277 278 279 281 283 284 286 287 287 288 289 290 289 289 289 289 290 291 291 293 294 296 297 299 301 303 304 305 307 308 310 310 310 309 308 307 306 305 304 303 302 302 302 303 303 302 299 297 296 296 297 297 298 300 301 302 301 301
243 243 243 243 242 242 243 243 244 246 248 251 249 243 244 247 248 248 248 251 253 255 256 256 257 259 262 263 265 266 268 270 271 272 273 274 275 276 277 278 279 280 281 282 283 284 285 286 287 287 287 286 287 287 288 289 290 291 293 293 295 297 298 299 301 302 302 303 305 307 308 307 307 307 307 306 305 304 302 302 303 304 305 305 304 301 299 297 297 298 297 298 299 299 301 300 297
242 242 242 242 242 242 242 243 245 247 249 249 248 243 242 246 249 250 250 250 253 254 256 257 257 260 262 262 265 268 270 271 273 274 276 278 279 279 279 279 280 281 281 282 283 283 284 284 284 284 284 285 286 287 288 289 290 291 292 293 294 295 296 297 298 298 299 301 302 303 304 305 306 306 305 306 306 305 304 305 307 309 309 308 306 302 298 296 297 298 298 299 298 295 298 297 294
240 241 241 241 242 242 243 244 245 247 247 246 247 245 242 246 250 251 250 250 252 254 257 259 259 262 264 263 265 268 270 272 274 277 280 281 281 280 281 281 280 281 283 283 282 282 282 281 281 282 282 284 285 287 287 288 289 290 291 292 293 294 294 295 295 296 297 298 300 301 301 302 303 303 305 308 307 308 314 316 314 313 311 309 310 305 299 297 299 299 299 300 298 295 297 296 293
239 241 241 241 242 242 244 245 244 245 246 246 247 245 244 246 248 249 249 250 253 254 256 260 261 262 263 263 265 269 272 273 277 281 282 282 281 280 282 283 283 284 285 283 281 280 280 279 280 282 283 284 285 286 286 287 288 290 291 292 292 292 292 292 293 294 295 296 297 298 299 299 300 300 304 305 301 303 310 311 309 309 308 309 310 306 300 301 301 300 298 298 298 297 298 299 295
239 241 241 240 242 243 243 244 243 243 246 246 246 246 244 245 246 248 250 251 253 254 255 259 261 261 262 264 267 273 276 278 285 286 285 284 282 282 284 285 286 286 285 283 281 280 279 280 280 281 282 283 283 284 285 287 289 290 291 291 291 291 290 290 291 293 294 295 296 296 296 296 297 298 299 297 295 298 298 296 299 303 305 307 308 303 300 301 300 299 297 296 296 295 295 296 294
238 240 240 240 241 242 242 243 243 242 245 246 246 246 244 245 247 248 250 251 252 254 256 258 258 257 260 265 266 270 278 290 298 291 291 287 280 284 289 288 288 285 283 282 281 279 278 278 278 279 280 280 282 284 286 288 289 289 289 290 289 289 289 289 289 291 292 292 293 294 294 294 296 296 293 293 296 298 294 290 292 298 302 305 305 302 301 300 299 297 297 296 296 294 293 293 292
238 238 240 240 240 242 242 242 243 242 244 245 245 245 244 245 246 247 249 249 251 254 256 256 254 254 258 261 262 269 281 295 291 277 281 277 272 284 291 291 289 285 282 281 279 278 277 277 277 278 279 281 284 286 287 287 287 288 289 288 288 288 288 289 289 290 290 291 292 292 292 292 293 291 290 295 297 294 288 286 292 299 302 303 303 302 301 300 298 298 297 297 296 295 294 293 292
238 238 239 240 240 242 242 241 241 242 243 244 243 243 243 244 245 246 246 247 251 254 253 254 252 251 254 255 252 251 248 256 259 256 257 255 263 279 288 292 294 289 285 283 281 279 277 276 276 276 278 282 286 287 285 286 287 287 287 287 288 289 290 291 291 291 290 290 292 292 291 291 291 288 289 295 297 295 290 290 295 299 301 302 301 301 300 299 298 298 298 297 296 295 294 294 294
238 238 238 240 240 240 241 240 240 241 242 242 241 241 242 242 242 242 243 246 249 250 249 250 250 248 248 243 230 220 226 234 239 244 244 243 257 274 287 293 294 292 288 284 281 278 275 273 272 273 277 282 284 284 283 284 285 286 288 289 289 291 293 295 293 291 291 292 293 292 291 292 290 289 291 296 299 299 297 297 299 301 301 301 300 300 299 298 297 297 297 296 295 295 295 295 296
239 238 238 239 239 238 239 239 239 239 240 240 239 239 239 240 238 238 241 242 243 244 244 243 246 247 241 233 224 223 230 225 218 224 229 237 255 273 288 290 288 291 289 284 279 275 273 271 271 272 273 277 278 277 279 283 289 296 294 289 289 292 296 298 296 293 293 295 294 291 292 293 291 292 297 302 303 303 303 304 304 303 302 300 299 298 298 297 296 295 295 295 295 296 296 296 296
240 239 237 239 239 238 238 238 237 238 238 239 238 237 237 237 236 236 238 238 238 235 226 221 220 223 222 223 222 220 223 211 200 213 222 233 249 262 277 280 281 286 290 291 283 275 273 269 268 266 262 267 267 266 274 284 303 312 297 285 289 295 298 300 300 298 298 298 296 292 291 291 291 295 302 304 305 306 306 305 304 302 300 298 297 296 296 295 295 294 294 295 296 296 297 297 297
242 240 238 239 239 236 236 236 236 236 236 237 236 235 235 235 235 236 236 236 231 217 213 212 208 211 212 211 212 210 205 198 199 214 220 227 239 244 252 262 271 282 291 296 290 279 273 268 262 253 250 255 251 254 271 279 301 310 300 290 290 297 301 302 306 305 303 303 300 295 290 285 288 297 303 304 304 305 305 303 302 300 297 297 296 295 294 294 293 293 293 294 295 296 296 296 296
243 242 239 238 238 235 235 235 234 233 234 234 234 233 234 235 234 230 227 226 216 205 210 210 208 212 213 211 213 208 196 195 204 211 215 224 231 234 239 246 252 260 274 284 284 276 267 262 255 243 241 242 237 249 265 272 292 305 300 288 285 295 302 303 307 304 302 306 301 295 287 281 291 303 305 304 303 304 304 303 300 298 295 294 294 293 292 291 291 291 291 292 293 294 294 295 294
243 242 239 237 236 234 234 234 232 232 233 232 232 232 233 234 230 223 223 222 210 204 210 208 207 208 210 213 213 208 199 201 208 206 209 220 225 229 231 233 236 234 238 248 252 253 257 255 245 236 232 229 233 248 257 266 285 295 285 277 278 291 299 297 295 290 294 300 292 283 278 284 300 306 306 305 304 304 302 300 298 295 293 292 291 290 290 290 290 291 292 292 293 293 293 293 293
242 241 239 237 236 234 233 234 231 232 233 231 230 231 234 233 227 223 223 223 215 209 211 208 205 203 205 209 207 206 206 205 206 201 206 217 222 229 231 231 234 234 235 244 246 247 254 250 233 227 227 228 238 251 256 264 279 287 278 271 267 281 292 285 282 286 294 298 291 279 273 288 304 305 305 305 303 302 300 298 296 294 293 292 291 290 290 290 290 291 292 292 293 293 293 293 293
238 238 237 236 235 232 232 234 229 228 232 230 229 230 233 231 225 224 221 219 218 212 212 209 207 206 206 207 204 206 210 208 208 207 210 218 222 229 234 235 237 236 236 246 253 253 255 248 233 230 229 235 251 256 261 267 275 282 281 271 259 269 276 273 279 281 279 287 282 270 269 287 303 304 303 303 301 301 299 298 298 296 295 294 293 292 291 291 291 291 291 292 292 292 292 292 292
236 236 236 235 235 231 232 235 227 224 229 228 227 230 232 229 223 224 221 218 219 214 212 211 209 210 209 209 207 209 211 209 209 213 217 223 226 229 233 235 238 239 240 246 254 256 255 248 240 239 237 244 254 254 261 269 270 274 276 269 256 256 258 265 273 256 227 239 253 253 260 284 300 302 301 301 302 302 301 302 302 301 300 299 298 297 295 294 293 293 293 293 293 293 293 292 292
235 235 235 234 234 231 231 234 227 222 228 227 225 228 231 227 222 223 221 217 219 217 216 213 211 211 210 210 210 212 214 211 212 215 219 226 230 232 233 234 237 241 243 248 252 255 256 249 243 247 247 248 251 251 258 260 259 264 268 266 255 250 254 254 249 234 218 224 241 246 256 283 299 299 299 302 303 305 305 305 305 304 304 303 303 302 301 300 299 298 298 297 297 296 295 294 293
234 233 234 234 234 232 230 233 229 221 226 228 225 227 229 225 220 222 221 218 218 219 218 216 215 215 214 212 210 211 213 214 216 217 219 224 230 233 234 235 238 241 245 250 252 254 255 250 247 249 249 247 246 251 256 254 255 259 263 263 251 251 261 246 225 224 220 226 240 242 254 285 299 296 298 302 304 306 307 306 306 306 306 307 307 307 306 305 305 305 304 303 302 301 299 298 297
232 232 234 234 233 233 231 233 231 220 224 229 225 227 230 224 218 220 221 219 219 220 219 217 217 218 217 215 211 211 213 214 215 217 221 226 229 232 232 235 240 243 246 249 249 252 252 247 246 247 248 245 243 248 251 253 257 256 255 255 254 262 263 236 218 222 221 227 238 241 259 289 297 293 297 300 302 304 305 305 306 306 306 307 308 310 310 310 310 311 310 309 307 305 303 301 300
233 232 233 232 233 234 231 232 229 218 222 229 226 227 230 223 218 219 220 219 219 219 220 219 218 219 218 217 214 212 214 214 215 218 222 226 230 232 233 236 239 241 245 246 245 250 248 242 242 244 247 246 243 245 248 252 256 254 253 251 261 272 253 223 221 230 228 230 238 246 267 290 293 292 296 298 299 301 301 302 303 304 304 305 306 308 309 309 310 311 312 312 310 308 306 303 301
233 233 233 233 233 233 230 231 227 216 221 229 227 228 228 222 217 217 217 218 218 218 218 218 220 221 220 220 217 213 214 217 219 221 223 226 230 234 236 236 236 239 243 243 244 250 247 240 240 242 244 245 243 245 247 246 246 250 251 250 264 267 237 218 225 231 232 235 242 253 272 289 290 291 294 295 297 298 298 300 301 303 303 303 304 305 305 305 306 308 310 311 311 310 308 305 303
232 232 232 232 231 229 228 231 226 218 222 229 228 227 226 220 216 215 214 215 216 215 215 217 219 221 223 223 219 214 215 219 223 225 225 227 230 234 238 237 236 237 240 242 246 252 247 239 241 241 242 244 242 242 241 238 240 245 248 253 263 252 223 220 229 232 238 243 249 259 276 287 288 289 292 293 294 296 297 299 300 302 302 302 302 302 303 303 304 306 308 309 311 310 309 307 304
231 230 230 230 230 228 230 233 228 220 223 228 228 226 224 219 215 214 213 213 213 213 213 214 217 221 224 226 223 219 218 219 223 228 229 229 230 234 238 239 241 242 243 245 248 251 245 238 240 238 237 241 240 236 234 235 241 243 247 257 257 236 222 225 231 237 245 250 254 265 279 286 287 289 290 291 293 295 297 299 300 301 301 301 301 301 302 303 304 306 307 309 310 310 310 307 305
228 227 228 229 229 230 231 233 231 222 222 228 228 226 224 220 216 214 213 213 212 212 212 212 216 221 224 227 227 224 222 221 223 227 229 229 230 234 238 241 246 247 247 248 245 245 242 238 238 235 235 239 238 236 235 237 241 242 250 256 245 233 233 234 235 242 247 251 259 273 283 287 287 289 290 291 294 295 297 299 300 301 301 301 302 302 303 303 304 306 308 310 311 311 310 307 305
227 224 226 228 228 230 230 231 231 224 221 228 229 227 225 222 218 214 213 213 211 211 212 211 213 218 221 226 228 225 222 223 225 226 228 229 231 234 237 242 247 248 247 247 242 240 241 240 240 238 237 237 237 239 240 237 239 245 253 252 238 233 239 240 243 247 248 256 268 279 285 286 287 289 290 293 294 295 297 298 300 301 302 302 303 304 305 305 306 308 310 311 312 311 309 306 304
227 225 226 227 227 229 229 230 232 225 221 228 230 227 226 225 220 214 212 212 210 210 210 210 214 217 219 222 225 224 222 226 230 230 228 229 231 235 238 242 246 247 247 248 242 238 240 242 244 242 240 237 236 240 241 236 240 250 253 247 238 236 239 241 245 249 255 266 275 280 283 284 286 289 291 292 293 295 297 298 300 301 302 303 304 305 305 306 308 310 313 313 312 310 309 307 305
227 227 226 227 228 230 230 230 233 229 223 229 231 227 225 225 221 215 215 212 209 211 210 209 214 216 217 219 221 223 224 228 233 233 231 229 230 235 238 241 246 247 247 248 244 237 237 242 245 244 240 238 237 239 238 236 243 250 247 242 242 242 243 247 253 259 266 273 276 278 280 283 287 289 291 292 293 295 296 298 299 300 302 303 303 304 303 305 308 312 316 316 313 312 312 311 310
227 228 227 229 231 233 233 234 236 230 224 228 230 226 224 224 221 215 217 215 208 210 212 210 213 216 218 218 220 223 225 229 232 234 232 228 227 232 236 241 246 247 245 244 244 238 235 238 243 244 240 237 238 237 237 240 245 245 238 237 242 245 250 257 263 267 271 274 275 277 280 285 288 290 291 291 293 294 295 297 298 299 301 301 301 301 302 305 308 312 316 316 312 313 315 315 314
231 231 230 231 234 236 236 237 235 227 224 226 228 228 225 226 223 215 216 216 210 210 214 213 212 215 219 220 221 223 224 227 231 233 232 227 227 230 233 239 245 245 242 240 242 240 236 236 240 243 240 236 236 237 240 244 243 238 235 237 242 249 257 264 267 270 272 275 277 279 282 286 289 290 291 292 293 294 295 296 297 298 298 298 298 299 301 304 307 310 313 313 309 310 314 316 316
232 231 230 230 232 235 235 235 232 225 224 225 228 229 224 224 226 218 214 215 211 210 215 217 214 213 217 219 220 221 224 229 231 231 229 227 227 230 232 237 241 243 241 240 241 242 240 237 237 240 239 238 238 240 244 245 240 237 238 242 247 254 261 265 269 272 275 277 279 281 283 286 288 289 290 292 293 294 295 296 296 296 297 297 297 299 301 304 306 308 311 311 307 306 311 315 316
231 229 227 228 231 233 231 230 227 223 223 225 227 227 220 220 225 221 214 215 213 209 212 217 217 215 216 218 221 223 224 228 229 227 226 225 227 229 232 236 238 240 240 241 242 243 242 239 237 237 238 241 243 243 243 242 240 240 243 247 252 257 262 266 271 275 277 279 280 281 284 286 287 289 290 291 292 293 294 294 295 296 296 297 298 300 302 304 306 308 309 309 307 307 310 313 315
232 229 227 227 229 230 228 227 226 223 224 225 228 227 221 221 224 222 217 216 216 212 209 214 217 218 218 218 222 225 225 226 227 223 221 224 228 229 230 234 236 238 239 240 243 243 242 241 239 238 239 241 244 245 243 242 242 245 248 251 256 260 263 268 272 276 278 279 280 282 284 285 287 288 289 289 290 291 292 294 295 296 296 297 299 301 303 305 306 308 308 308 308 309 310 312 314
231 228 225 225 226 227 226 227 227 226 226 227 228 227 222 222 225 222 218 216 217 214 209 210 214 217 219 221 223 225 226 227 226 220 218 223 228 230 231 234 236 237 238 238 240 242 242 241 240 240 241 241 242 245 245 245 247 249 252 255 259 262 265 269 272 275 277 279 281 282 283 284 285 286 286 288 289 291 293 294 295 295 296 298 301 303 304 305 306 307 307 307 308 309 310 311 312
229 224 220 222 225 227 228 228 229 229 229 229 229 227 223 223 225 223 219 217 217 215 211 211 212 214 219 223 225 226 228 228 225 219 220 223 227 231 233 235 236 238 238 238 239 240 241 242 242 242 243 243 243 245 246 247 249 251 254 257 260 264 268 270 272 275 277 279 281 282 282 283 283 284 286 287 289 292 293 294 294 296 298 300 302 304 304 305 306 306 307 307 308 309 310 311 312
229 223 220 223 225 228 229 229 229 230 229 228 229 227 224 225 226 223 221 219 218 218 216 214 212 213 216 219 223 226 228 229 225 221 221 223 226 231 233 235 237 238 240 241 241 242 243 244 245 245 245 245 245 246 247 249 251 252 255 257 261 265 268 271 273 276 278 280 281 282 283 284 285 286 288 289 290 292 293 294 296 298 299 300 302 303 304 304 305 306 307 308 309 309 310 311 311
230 226 223 225 227 228 229 228 228 229 228 227 228 226 224 225 226 224 223 221 219 219 217 213 212 215 216 217 221 227 228 229 227 224 224 226 228 232 235 237 238 240 242 244 245 245 245 246 247 248 249 248 248 248 248 249 252 254 256 259 262 265 268 271 273 276 278 280 282 284 285 286 288 289 289 291 292 293 294 295 297 298 299 300 301 302 303 304 304 306 307 308 309 309 310 310 309
230 227 222 224 227 228 229 229 229 230 230 228 226 225 222 223 224 223 222 222 221 220 217 213 213 215 217 219 222 226 228 230 229 228 228 229 231 235 239 239 240 242 245 246 247 248 248 249 249 251 252 252 252 252 251 251 252 255 257 260 263 265 267 270 272 275 278 280 282 284 285 286 288 288 290 291 292 293 294 295 297 297 298 299 300 301 302 303 305 306 307 307 308 308 308 308 308